Location: Bondula
(6.3703°N, 10.6756°W)
Time: 00:47:08
(UTC+00:00)

Cosmos 1953 - Pass Details

Date: 22 October 2019
Orbit: 538 x 559 km, 82.5° (Epoch: 15 November)

Event Time Altitude Azimuth Distance (km) Brightness Sun altitude
Rises 04:48:10 0° 14° (NNE) 2,691 5.9 -25.5°
Reaches altitude 10° 04:50:34 10° 27° (NNE) 1,797 5.1 -24.9°
Maximum altitude 04:53:55 27° 85° (E) 1,067 4.4 -24.1°
Drops below altitude 10° 04:57:16 10° 144° (SE) 1,795 5.5 -23.2°
Sets 04:59:39 0° 156° (SSE) 2,685 6.3 -22.7°
